Wind_Speed
5 5 5 5 5 5 5 4 4 3 3 3 2 3 3 3 4 4 5 5 5 5 5 5 5 5 5 4 5 4 4 5 5 4 4 4 5 6 6 6 5 6 6
6 6 6 7 6 6 6 5 5 4 4 4 4 4 4 5 4 5 5 5 6 6 6 6 6 5 5 6 6 6 6 6 6 6 6 7 6 7 7 6 6 7 7
6 6 6 6 7 7 7 6 6 6 5 5 5 5 5 6 5 6 6 6 6 6 6 6 6 6 6 6 6 7 8 8 8 8 8 8 8 8 8 8 8 8 8
6 6 6 6 7 7 7 7 7 7 6 6 6 6 6 6 6 6 7 7 7 7 7 7 7 7 7 7 7 8 8 9 9 9 9 9 9 9 9 9 9 9 9
7 7 7 7 7 7 8 8 7 8 7 7 6 6 6 6 7 7 8 8 7 7 7 7 7 7 8 8 8 8 8 9 9 9 9 9 9 9 9 9 9 9 9
7 7 7 8 8 8 8 8 8 8 7 8 7 7 7 8 8 8 8 8 8 8 8 8 8 9 9 9 9 9 9 9 9 9 9 10 10 10 10 10 10 10 9
7 7 8 8 8 8 8 8 8 8 8 8 8 8 8 8 8 8 7 8 8 8 8 9 9 10 10 10 10 10 10 10 10 10 10 10 10 11 11 11 11 10 11
8 8 8 8 8 8 8 9 9 8 8 9 9 8 8 8 8 8 8 8 8 9 9 10 10 11 11 11 11 11 11 11 11 11 11 10 11 11 11 11 11 11 12
8 8 8 8 8 8 8 8 8 8 8 8 8 8 8 8 8 8 8 8 8 9 9 9 10 11 11 11 11 11 11 10 11 11 12 12 12 11 11 11 12 12 13
9 8 8 9 9 9 9 9 9 9 9 9 9 9 8 9 9 9 9 9 9 9 9 10 10 10 10 10 11 12 12 11 11 12 12 12 12 12 12 12 12 13 13
9 9 9 9 9 9 9 9 9 9 9 9 10 10 9 9 10 10 10 10 10 10 10 10 10 11 11 11 11 12 13 13 13 13 12 12 12 13 13 13 13 13 13
9 10 9 9 9 9 9 9 9 10 10 10 10 10 10 10 10 10 11 11 11 10 11 11 11 11 11 11 11 12 13 13 13 14 14 14 13 13 13 13 13 12 12
10 10 10 10 9 9 9 9 10 10 10 10 10 10 10 10 10 10 11 11 11 11 11 11 11 11 11 11 11 12 13 13 14 15 15 15 14 13 13 13 13 13 13
11 11 11 10 10 10 9 10 10 10 10 11 11 11 11 11 10 10 10 11 11 11 11 11 11 11 11 11 11 12 12 13 15 16 15 16 15 14 14 14 14 13 13
11 11 11 11 11 10 10 10 11 11 11 11 11 11 11 11 11 10 10 10 10 11 11 11 11 11 11 11 11 12 12 13 14 14 15 15 15 15 14 14 14 14 14
11 11 12 12 11 11 11 11 11 12 12 12 11 11 11 11 11 11 11 11 11 11 11 11 12 11 11 11 11 12 12 13 13 13 14 14 14 14 14 14 14 13 13
12 12 12 13 12 11 11 12 12 12 12 12 12 12 12 12 12 11 11 11 11 11 12 12 12 12 12 12 12 12 12 13 14 14 14 14 14 14 14 14 14 14 14
13 13 13 13 13 12 12 12 12 12 12 12 12 12 12 12 11 11 11 11 12 12 12 12 12 12 12 12 12 12 13 13 13 13 13 14 14 14 15 15 15 15 14
13 13 13 13 13 14 14 13 13 12 12 12 12 12 12 12 12 12 12 12 11 11 11 11 12 13 13 13 13 13 13 14 14 14 14 13 13 14 14 15 15 14 14
13 13 13 13 13 13 14 14 14 13 13 12 12 12 12 12 12 12 12 11 11 11 11 12 12 13 13 13 14 14 14 14 14 14 14 14 14 13 13 13 13 13 13
12 13 13 14 14 14 14 14 14 14 13 13 13 13 13 13 13 13 12 12 12 12 13 13 13 13 13 13 14 13 14 14 14 14 14 14 14 14 14 14 13 13 14
12 12 12 13 14 14 14 14 14 14 14 14 14 14 14 14 13 13 14 14 14 13 14 14 15 15 15 15 14 14 14 14 14 15 15 15 15 15 15 15 15 14 14
13 13 13 13 13 13 13 14 14 15 15 15 15 15 15 15 14 14 15 15 15 15 15 15 16 16 16 16 16 16 15 15 15 15 15 16 16 16 16 16 16 16 15
14 14 14 14 14 14 15 15 15 16 16 16 16 16 16 15 15 15 15 16 16 16 16 16 17 17 17 18 18 17 17 17 16 15 15 16 16 16 16 17 17 17 16
15 15 15 15 15 16 16 17 17 17 17 17 17 17 17 16 16 16 17 17 17 18 18 18 18 18 18 18 18 18 18 18 18 17 16 16 17 17 17 18 18 18 18
16 16 16 17 17 17 17 17 18 18 18 18 18 18 18 18 18 18 19 19 19 19 19 20 20 20 19 19 19 19 19 19 19 19 18 17 18 19 19 19 19 19 18
Wind_Direction
238 239 243 250 251 250 247 250 254 252 257 258 255 250 246 245 256 257 253 251 249 251 249 248 249 249 246 242 241 241 243 240 242 244 244 242 238 238 234 235 238 240 243
248 245 248 249 251 251 255 261 261 259 261 264 269 261 260 266 268 261 259 260 258 259 257 252 250 248 249 248 248 247 248 250 251 253 254 251 247 249 249 251 250 250 250
259 259 255 251 251 254 260 263 263 263 263 268 273 267 268 275 274 266 261 263 263 261 264 258 250 250 251 250 252 254 254 253 253 255 257 257 256 256 255 257 255 256 254
261 261 262 256 251 256 261 262 264 264 264 267 273 270 272 275 277 272 266 265 262 264 264 259 257 258 257 256 257 260 260 257 258 260 261 259 258 258 258 259 258 257 256
262 262 262 257 255 259 263 264 265 266 264 267 274 270 270 275 277 275 271 262 261 264 263 262 264 266 263 262 262 262 263 263 261 263 265 264 262 260 259 257 256 259 261
263 264 266 261 262 263 265 266 264 266 268 269 275 273 272 277 280 278 271 264 265 268 264 261 263 264 264 264 263 262 264 266 265 266 267 266 265 262 257 257 259 260 262
263 265 269 265 266 266 266 267 266 264 265 268 274 277 278 281 284 277 273 272 269 269 266 264 265 265 265 263 262 265 266 266 267 267 267 267 268 264 259 257 261 265 264
264 267 269 269 265 266 268 270 268 271 270 269 274 279 281 283 282 282 275 272 271 271 269 269 270 270 267 266 267 269 271 271 269 268 267 268 269 267 265 266 265 268 269
266 266 267 268 271 273 276 273 273 274 276 276 280 280 279 282 282 281 280 274 273 277 271 270 273 273 270 268 268 269 271 273 273 269 269 268 267 267 268 271 270 269 270
268 263 266 268 268 271 273 274 275 277 279 283 283 279 278 280 282 281 279 277 276 275 273 274 274 273 271 269 271 271 268 271 274 272 270 268 266 268 271 271 272 273 273
268 266 268 268 270 272 272 272 274 274 277 282 280 278 279 280 281 281 280 278 278 278 276 275 278 277 274 271 273 274 269 272 275 274 271 269 270 271 274 275 275 277 276
268 266 267 268 272 273 274 275 275 275 276 280 284 281 279 280 281 280 279 277 277 277 278 278 277 278 278 278 277 276 273 273 275 273 274 272 271 272 274 276 276 278 276
271 269 268 270 275 275 275 277 277 277 277 280 283 284 284 284 284 282 280 278 276 277 279 280 278 278 278 278 277 276 274 273 273 272 273 272 271 271 274 276 277 277 276
272 273 273 274 277 279 278 279 279 282 283 282 285 285 285 286 287 285 281 280 279 276 276 277 280 278 277 277 276 274 274 277 272 270 270 271 272 272 275 278 280 278 277
269 270 273 276 277 276 277 279 280 280 285 287 288 287 287 288 287 287 285 282 281 278 278 279 279 279 280 280 278 276 276 276 276 273 271 272 272 273 274 277 280 282 278
267 268 270 273 273 274 276 280 284 282 285 286 289 290 288 289 288 287 285 284 283 283 282 280 279 278 280 283 284 285 283 280 277 276 275 272 272 272 271 273 274 276 278
269 270 273 274 275 277 278 280 284 284 285 287 288 290 289 289 289 287 286 286 286 284 283 281 280 279 279 281 283 285 286 282 280 279 276 274 273 271 268 267 267 270 273
271 273 274 274 273 275 277 278 280 283 283 285 287 288 287 287 287 286 288 289 290 287 286 283 281 280 278 279 282 286 286 286 286 283 281 278 276 273 270 269 268 267 268
275 275 274 272 273 272 274 278 280 282 283 284 284 286 286 286 285 286 288 290 292 291 291 287 282 281 280 281 283 285 286 286 286 284 284 281 278 275 273 271 269 268 269
277 277 276 273 273 274 274 275 277 281 283 283 282 285 286 286 285 284 286 286 287 288 289 288 288 285 284 284 284 285 287 287 285 283 281 279 279 278 276 273 272 273 275
281 279 279 277 274 273 273 274 276 276 281 281 281 283 283 286 285 282 283 284 284 286 289 289 289 288 285 286 287 288 288 288 284 280 278 277 277 276 275 275 274 275 276
284 282 283 280 279 278 275 276 277 279 279 282 281 282 284 283 283 281 283 285 285 285 286 286 287 288 284 283 285 288 290 288 282 282 279 277 276 275 275 275 275 276 277
281 283 282 280 280 279 278 279 281 280 280 281 281 282 284 283 281 282 284 285 285 287 288 288 289 288 286 285 285 286 285 283 281 282 279 277 276 276 275 273 274 274 274
279 280 280 279 279 279 280 282 282 281 280 282 282 283 284 285 282 283 283 284 284 286 286 288 289 288 286 285 284 284 284 283 281 281 281 279 276 274 272 271 271 271 272
279 279 279 279 279 281 282 282 283 282 280 280 281 282 285 284 280 281 283 285 286 286 286 288 289 288 287 284 283 284 284 283 280 280 279 277 276 276 275 273 271 270 271
281 279 279 281 280 281 282 283 284 283 282 280 280 280 282 282 280 279 281 284 286 287 288 288 288 288 287 285 284 284 284 282 279 277 277 276 276 276 274 273 271 270 269
Height
5872 5872 5873 5873 5873 5873 5873 5873 5873 5873 5873 5873 5873 5872 5872 5872 5872 5872 5872 5873 5873 5874 5874 5874 5874 5875 5875 5875 5875 5876 5876 5876 5876 5876 5877 5877 5877 5878 5879 5879 5879 5880 5881
5872 5872 5872 5872 5872 5872 5873 5873 5873 5873 5872 5872 5872 5872 5872 5872 5872 5872 5872 5872 5872 5873 5873 5873 5873 5874 5874 5874 5874 5875 5875 5876 5876 5876 5876 5876 5877 5877 5878 5878 5879 5879 5879
5871 5871 5871 5871 5871 5872 5872 5872 5872 5872 5872 5872 5872 5871 5871 5871 5871 5871 5871 5871 5871 5872 5872 5873 5873 5873 5873 5873 5874 5874 5874 5875 5875 5875 5875 5876 5876 5876 5877 5877 5877 5878 5878
5870 5870 5870 5870 5871 5871 5871 5871 5871 5871 5871 5871 5871 5871 5870 5870 5870 5870 5870 5870 5870 5871 5871 5872 5872 5872 5872 5873 5873 5873 5873 5873 5874 5874 5874 5875 5875 5875 5876 5876 5876 5877 5877
5869 5869 5869 5870 5870 5870 5870 5870 5870 5870 5870 5870 5870 5870 5870 5870 5869 5869 5869 5869 5869 5869 5870 5870 5871 5871 5871 5871 5872 5872 5872 5872 5872 5873 5873 5873 5874 5874 5874 5874 5875 5875 5875
5868 5868 5868 5868 5869 5869 5869 5869 5869 5869 5869 5869 5869 5869 5869 5869 5869 5868 5868 5868 5868 5868 5868 5869 5869 5869 5870 5870 5870 5870 5870 5871 5871 5871 5872 5872 5872 5872 5873 5873 5873 5873 5874
5867 5867 5867 5867 5868 5868 5868 5868 5868 5868 5868 5868 5868 5868 5868 5868 5867 5867 5867 5867 5867 5867 5867 5867 5867 5868 5868 5868 5868 5868 5869 5869 5869 5870 5870 5870 5871 5871 5871 5871 5871 5872 5872
5866 5866 5866 5866 5866 5866 5866 5867 5866 5867 5867 5867 5867 5867 5867 5866 5866 5866 5866 5865 5865 5865 5866 5866 5866 5866 5866 5866 5866 5866 5867 5867 5868 5867 5868 5868 5869 5869 5869 5869 5869 5870 5870
5865 5865 5865 5865 5865 5865 5865 5865 5865 5865 5865 5865 5865 5865 5865 5865 5865 5865 5864 5864 5864 5864 5864 5864 5864 5864 5864 5864 5864 5864 5865 5865 5866 5866 5866 5866 5866 5867 5867 5867 5867 5868 5868
5864 5864 5864 5864 5864 5864 5863 5863 5864 5864 5864 5864 5864 5864 5864 5864 5863 5863 5863 5863 5862 5862 5862 5862 5862 5862 5862 5862 5862 5862 5863 5863 5863 5863 5864 5864 5864 5864 5864 5865 5865 5865 5865
5862 5862 5862 5862 5862 5862 5862 5862 5862 5862 5862 5862 5862 5862 5862 5862 5862 5861 5861 5861 5861 5861 5860 5860 5860 5860 5860 5860 5860 5860 5860 5861 5861 5861 5861 5861 5862 5862 5862 5862 5862 5863 5863
5860 5860 5861 5861 5861 5861 5861 5861 5861 5861 5861 5861 5861 5861 5860 5860 5860 5860 5860 5859 5859 5859 5858 5858 5858 5858 5858 5858 5858 5858 5858 5858 5859 5859 5859 5859 5859 5859 5859 5859 5860 5860 5860
5859 5859 5859 5859 5859 5859 5859 5859 5859 5859 5859 5859 5859 5859 5858 5858 5858 5858 5857 5857 5857 5857 5856 5856 5856 5856 5856 5855 5855 5855 5855 5855 5855 5856 5856 5856 5856 5857 5857 5857 5857 5857 5857
5857 5857 5857 5857 5857 5857 5858 5857 5857 5857 5857 5857 5857 5856 5856 5856 5856 5855 5855 5855 5855 5854 5854 5854 5853 5853 5853 5853 5853 5853 5853 5852 5852 5853 5853 5853 5854 5854 5854 5854 5854 5854 5853
5855 5855 5855 5856 5856 5856 5856 5856 5855 5855 5855 5855 5854 5854 5854 5854 5853 5853 5853 5852 5852 5852 5852 5851 5851 5851 5850 5850 5850 5850 5850 5850 5850 5850 5850 5850 5851 5851 5851 5851 5851 5850 5849
5853 5853 5853 5853 5854 5853 5853 5853 5853 5853 5853 5853 5852 5852 5852 5851 5851 5851 5850 5850 5850 5849 5849 5849 5849 5848 5848 5848 5848 5847 5847 5847 5847 5847 5847 5847 5848 5848 5848 5848 5848 5847 5846
5851 5851 5851 5851 5851 5851 5851 5851 5851 5851 5850 5850 5850 5850 5849 5849 5849 5848 5848 5848 5847 5847 5847 5846 5846 5846 5846 5846 5845 5845 5845 5844 5844 5844 5844 5844 5844 5845 5845 5845 5845 5844 5844
5849 5849 5849 5849 5849 5849 5849 5849 5849 5848 5848 5848 5848 5847 5847 5847 5846 5846 5846 5845 5845 5844 5844 5843 5843 5843 5843 5842 5842 5842 5842 5841 5841 5841 5841 5841 5841 5841 5842 5842 5842 5842 5842
5846 5846 5846 5846 5847 5847 5847 5847 5846 5846 5846 5845 5845 5845 5845 5844 5844 5843 5843 5843 5842 5842 5841 5841 5840 5840 5840 5839 5839 5839 5838 5838 5838 5838 5838 5838 5838 5838 5838 5838 5839 5839 5839
5844 5844 5844 5844 5844 5844 5844 5844 5844 5844 5843 5843 5843 5843 5842 5841 5841 5841 5840 5840 5839 5839 5838 5838 5837 5837 5836 5836 5836 5835 5835 5835 5834 5834 5834 5835 5835 5835 5835 5835 5835 5836 5836
5841 5841 5841 5841 5841 5841 5841 5841 5841 5841 5841 5841 5840 5840 5839 5839 5838 5838 5837 5837 5837 5836 5836 5835 5835 5834 5833 5833 5833 5832 5832 5831 5831 5831 5831 5831 5831 5832 5832 5832 5832 5832 5833
5839 5839 5839 5839 5838 5838 5838 5838 5838 5838 5838 5838 5837 5837 5836 5836 5835 5835 5834 5834 5833 5833 5833 5832 5832 5831 5830 5830 5829 5829 5829 5829 5827 5827 5827 5827 5828 5828 5828 5828 5828 5829 5829
5836 5836 5836 5836 5835 5835 5835 5835 5835 5835 5834 5834 5834 5834 5833 5832 5832 5831 5831 5831 5830 5830 5829 5829 5828 5827 5827 5826 5825 5825 5825 5824 5824 5823 5823 5823 5823 5824 5824 5824 5824 5825 5825
5833 5833 5833 5833 5832 5832 5832 5831 5831 5831 5831 5831 5830 5830 5829 5829 5828 5828 5827 5827 5827 5826 5826 5825 5824 5823 5823 5822 5821 5820 5820 5820 5820 5819 5819 5819 5819 5819 5819 5819 5820 5820 5821
5830 5830 5830 5829 5829 5828 5828 5828 5827 5827 5827 5826 5826 5826 5825 5825 5824 5824 5824 5823 5823 5822 5821 5821 5820 5819 5818 5817 5816 5816 5815 5815 5814 5815 5815 5814 5814 5814 5814 5814 5815 5816 5816
5826 5826 5826 5825 5825 5824 5824 5824 5823 5822 5822 5822 5822 5822 5821 5821 5820 5820 5819 5819 5818 5818 5817 5816 5815 5814 5813 5812 5811 5811 5810 5810 5809 5809 5809 5809 5809 5809 5808 5809 5809 5810 5811